Location: Ústí nad Labem
(50.6611°N, 14.0531°E)
Time: 06:27:17
(UTC+02:00)

Transit 4A - Visible Passes

Search period start: 22 April 2024 00:00
Search period end: 02 May 2024 00:00
Orbit: 871 x 972 km, 66.8° (Epoch: 21 April)

Date Brightness Start Highest point End Pass type
(mag) Time Alt. Az. Time Alt. Az. Time Alt. Az.
22 Apr 8.0 21:05:53 10° NNW 21:11:41 62° NE 21:16:56 13° SE visible
22 Apr 9.1 22:52:41 10° NW 22:57:41 30° WSW 23:00:27 21° SSW visible
23 Apr 7.8 21:14:56 10° NW 21:20:48 82° NE 21:26:02 13° SE visible
23 Apr 9.6 23:02:13 10° WNW 23:06:28 21° WSW 23:09:33 14° SW visible
24 Apr 7.9 21:24:01 10° NW 21:29:51 74° WSW 21:35:11 13° SSE visible
24 Apr 10.0 23:12:08 10° WNW 23:15:12 15° WSW 23:18:16 10° SW visible
25 Apr 8.4 21:33:10 10° NW 21:38:49 54° WSW 21:44:23 11° SSE visible
26 Apr 8.9 21:42:24 10° NW 21:47:44 38° WSW 21:53:06 10° S visible
27 Apr 9.4 21:51:46 10° NW 21:56:34 27° WSW 22:01:25 10° SSW visible
28 Apr 9.9 22:01:22 10° WNW 22:05:21 19° WSW 22:09:20 10° SSW visible
29 Apr 10.2 22:11:32 10° WNW 22:14:02 13° WSW 22:16:34 10° SW visible
